| time (UTC) | temp C | wind direction | speed KPH | gust KPH | rain 1hr cm | rain 24hr cm | rain mn cm | humidity % | barometer mb |
| 20260906231604 | 34 | 177 | 3.2 | 16.1 | 0.00 | 0.00 | 0.00 | 52 | 1011.1 |
| 20260906230110 | 35 | 186 | 6.4 | 14.5 | 0.00 | 0.00 | 0.00 | 51 | 1011.2 |
| 20260906224612 | 35 | 215 | 4.8 | 14.5 | 0.00 | 0.00 | 0.00 | 50 | 1011.2 |
| 20260906223108 | 35 | 185 | 6.4 | 12.9 | 0.00 | 0.00 | 0.00 | 49 | 1011.1 |
| 20260906221612 | 35 | 147 | 4.8 | 12.9 | 0.00 | 0.00 | 0.00 | 48 | 1011.4 |
| 20260906220139 | 35 | 159 | 4.8 | 14.5 | 0.00 | 0.00 | 0.00 | 46 | 1011.5 |
| 20260906214602 | 36 | 177 | 1.6 | 16.1 | 0.00 | 0.00 | 0.00 | 46 | 1011.5 |
| 20260906213105 | 36 | 131 | 1.6 | 6.4 | 0.00 | 0.00 | 0.00 | 47 | 1011.8 |
| 20260906211613 | 35 | 0 | 0.0 | 12.9 | 0.00 | 0.00 | 0.00 | 49 | 1011.9 |
| 20260906210114 | 35 | 190 | 1.6 | 11.3 | 0.00 | 0.00 | 0.00 | 48 | 1012.2 |
| 20260906204601 | 35 | 0 | 0.0 | 8.0 | 0.00 | 0.00 | 0.00 | 49 | 1012.3 |
| 20260906203107 | 34 | 178 | 1.6 | 11.3 | 0.00 | 0.00 | 0.00 | 50 | 1012.5 |
| 20260906201608 | 34 | 195 | 3.2 | 11.3 | 0.00 | 0.00 | 0.00 | 50 | 1012.5 |
| 20260906200105 | 33 | 0 | 4.8 | 14.5 | 0.00 | 0.00 | 0.00 | 51 | 1012.8 |
| 20260906194630 | 33 | 0 | 3.2 | 11.3 | 0.00 | 0.00 | 0.00 | 52 | 1012.9 |
| 20260906193107 | 35 | 180 | 1.6 | 11.3 | 0.00 | 0.00 | 0.00 | 51 | 1013.0 |
| 20260906191609 | 35 | 250 | 4.8 | 12.9 | 0.00 | 0.00 | 0.00 | 52 | 1013.1 |
| 20260906190108 | 35 | 140 | 1.6 | 4.8 | 0.00 | 0.00 | 0.00 | 52 | 1013.4 |
| 20260906184611 | 33 | 170 | 1.6 | 11.3 | 0.00 | 0.00 | 0.00 | 53 | 1013.4 |
| 20260906183104 | 34 | 0 | 1.6 | 8.0 | 0.00 | 0.00 | 0.00 | 52 | 1013.6 |
| 20260906181603 | 33 | 181 | 3.2 | 12.9 | 0.00 | 0.00 | 0.00 | 50 | 1013.7 |
| 20260906180107 | 32 | 213 | 3.2 | 9.7 | 0.00 | 0.00 | 0.00 | 55 | 1014.1 |
| 20260906174605 | 32 | 209 | 3.2 | 8.0 | 0.00 | 0.00 | 0.00 | 61 | 1014.5 |
| 20260906173103 | 31 | 194 | 3.2 | 11.3 | 0.00 | 0.00 | 0.00 | 64 | 1014.9 |
| 20260906171609 | 31 | 173 | 3.2 | 14.5 | 0.00 | 0.00 | 0.00 | 66 | 1015.3 |
| 20260906170106 | 30 | 150 | 6.4 | 16.1 | 0.00 | 0.00 | 0.00 | 72 | 1015.4 |
| 20260906164604 | 30 | 201 | 1.6 | 9.7 | 0.00 | 0.00 | 0.00 | 71 | 1015.5 |
| 20260906163101 | 30 | 200 | 0.0 | 9.7 | 0.00 | 0.00 | 0.00 | 70 | 1015.5 |
| 20260906161606 | 30 | 202 | 3.2 | 11.3 | 0.00 | 0.00 | 0.00 | 71 | 1015.4 |
| 20260906160105 | 29 | 0 | 0.0 | 8.0 | 0.00 | 0.00 | 0.00 | 74 | 1015.4 |
| 20260906154605 | 29 | 164 | 0.0 | 6.4 | 0.00 | 0.00 | 0.00 | 74 | 1015.3 |
| 20260906153103 | 28 | 0 | 1.6 | 6.4 | 0.00 | 0.00 | 0.00 | 75 | 1015.1 |
| 20260906151606 | 28 | 164 | 1.6 | 8.0 | 0.00 | 0.00 | 0.00 | 75 | 1014.9 |
| 20260906150108 | 28 | 167 | 0.0 | 8.0 | 0.00 | 0.00 | 0.00 | 77 | 1014.7 |
| 20260906144620 | 28 | 0 | 0.0 | 4.8 | 0.00 | 0.00 | 0.00 | 77 | 1014.6 |
| 20260906143105 | 28 | 241 | 0.0 | 4.8 | 0.00 | 0.00 | 0.00 | 77 | 1014.6 |
| 20260906141635 | 27 | 0 | 0.0 | 3.2 | 0.00 | 0.00 | 0.00 | 79 | 1014.6 |
| 20260906140110 | 27 | 0 | 0.0 | 3.2 | 0.00 | 0.00 | 0.00 | 80 | 1014.4 |
| 20260906134606 | 27 | 0 | 0.0 | 3.2 | 0.00 | 0.00 | 0.00 | 81 | 1014.3 |
| 20260906133106 | 27 | 242 | 0.0 | 0.0 | 0.00 | 0.00 | 0.00 | 82 | 1014.3 |
| 20260906131607 | 27 | 0 | 0.0 | 1.6 | 0.00 | 0.00 | 0.00 | 82 | 1014.0 |
| 20260906130104 | 27 | 0 | 0.0 | 0.0 | 0.00 | 0.00 | 0.00 | 82 | 1013.8 |
| 20260906124607 | 26 | 0 | 0.0 | 0.0 | 0.00 | 0.00 | 0.00 | 83 | 1013.6 |
| 20260906123105 | 26 | 0 | 0.0 | 0.0 | 0.00 | 0.00 | 0.00 | 84 | 1013.4 |
| 20260906121604 | 26 | 0 | 0.0 | 0.0 | 0.00 | 0.00 | 0.00 | 84 | 1013.2 |
| 20260906120106 | 26 | 0 | 0.0 | 0.0 | 0.00 | 0.00 | 0.00 | 84 | 1012.9 |
| 20260906114606 | 26 | 0 | 0.0 | 0.0 | 0.00 | 0.00 | 0.00 | 83 | 1012.5 |
| 20260906113117 | 26 | 0 | 0.0 | 0.0 | 0.00 | 0.00 | 0.00 | 83 | 1012.6 |
| 20260906111619 | 26 | 0 | 0.0 | 0.0 | 0.00 | 0.00 | 0.00 | 82 | 1012.6 |
| 20260906110107 | 26 | 0 | 0.0 | 1.6 | 0.00 | 0.00 | 0.00 | 81 | 1012.3 |
| 20260906104630 | 26 | 0 | 0.0 | 0.0 | 0.00 | 0.00 | 0.00 | 80 | 1012.4 |
| 20260906103115 | 27 | 0 | 0.0 | 0.0 | 0.00 | 0.00 | 0.00 | 80 | 1012.2 |
| 20260906101610 | 27 | 0 | 0.0 | 3.2 | 0.00 | 0.00 | 0.00 | 79 | 1012.1 |
| 20260906100104 | 27 | 0 | 0.0 | 1.6 | 0.00 | 0.00 | 0.00 | 79 | 1012.0 |
| 20260906094643 | 27 | 0 | 0.0 | 3.2 | 0.00 | 0.00 | 0.00 | 78 | 1012.0 |
| 20260906093111 | 27 | 0 | 0.0 | 3.2 | 0.00 | 0.00 | 0.00 | 77 | 1011.9 |
| 20260906091617 | 27 | 242 | 0.0 | 6.4 | 0.00 | 0.00 | 0.00 | 77 | 1011.9 |
| 20260906090105 | 27 | 199 | 0.0 | 6.4 | 0.00 | 0.00 | 0.00 | 77 | 1011.9 |
| 20260906084607 | 28 | 0 | 0.0 | 11.3 | 0.00 | 0.00 | 0.00 | 76 | 1012.0 |
| 20260906083105 | 28 | 202 | 0.0 | 8.0 | 0.00 | 0.00 | 0.00 | 76 | 1012.0 |
| 20260906081603 | 28 | 0 | 0.0 | 8.0 | 0.00 | 0.00 | 0.00 | 76 | 1011.9 |
| 20260906080103 | 28 | 202 | 0.0 | 6.4 | 0.00 | 0.00 | 0.00 | 76 | 1012.1 |
| 20260906074606 | 28 | 202 | 1.6 | 8.0 | 0.00 | 0.00 | 0.00 | 76 | 1012.2 |
| 20260906073103 | 28 | 0 | 1.6 | 6.4 | 0.00 | 0.00 | 0.00 | 75 | 1012.5 |
| 20260906071606 | 28 | 0 | 1.6 | 8.0 | 0.00 | 0.00 | 0.00 | 75 | 1012.6 |
| 20260906070104 | 28 | 170 | 3.2 | 14.5 | 0.00 | 0.00 | 0.00 | 75 | 1012.8 |
| 20260906064605 | 28 | 0 | 0.0 | 9.7 | 0.00 | 0.00 | 0.00 | 75 | 1013.0 |
| 20260906063103 | 28 | 0 | 0.0 | 9.7 | 0.00 | 0.00 | 0.00 | 75 | 1013.1 |
| 20260906061606 | 28 | 164 | 3.2 | 11.3 | 0.00 | 0.00 | 0.00 | 75 | 1013.0 |
| 20260906060111 | 28 | 0 | 1.6 | 8.0 | 0.00 | 0.00 | 0.00 | 75 | 1013.1 |
| 20260906054607 | 28 | 0 | 0.0 | 6.4 | 0.00 | 0.00 | 0.00 | 75 | 1013.3 |
| 20260906053110 | 28 | 0 | 1.6 | 9.7 | 0.00 | 0.00 | 0.00 | 74 | 1013.1 |
| 20260906051605 | 28 | 161 | 1.6 | 11.3 | 0.00 | 0.00 | 0.00 | 74 | 1013.3 |
| 20260906050133 | 28 | 161 | 1.6 | 9.7 | 0.00 | 0.00 | 0.00 | 74 | 1013.3 |
| 20260906044606 | 28 | 0 | 1.6 | 14.5 | 0.00 | 0.00 | 0.00 | 73 | 1013.5 |
| 20260906043105 | 28 | 156 | 4.8 | 11.3 | 0.00 | 0.00 | 0.00 | 72 | 1013.3 |
| 20260906041605 | 28 | 155 | 4.8 | 14.5 | 0.00 | 0.00 | 0.00 | 71 | 1013.2 |
| 20260906040139 | 29 | 0 | 4.8 | 16.1 | 0.00 | 0.00 | 0.00 | 70 | 1013.1 |
| 20260906034609 | 29 | 136 | 4.8 | 12.9 | 0.00 | 0.00 | 0.00 | 69 | 1013.2 |
| 20260906033109 | 30 | 138 | 3.2 | 17.7 | 0.00 | 0.00 | 0.00 | 67 | 1013.1 |
| 20260906031605 | 30 | 131 | 4.8 | 17.7 | 0.00 | 0.00 | 0.00 | 66 | 1013.1 |
| 20260906030111 | 30 | 144 | 8.0 | 19.3 | 0.00 | 0.00 | 0.00 | 64 | 1012.9 |
| 20260906024608 | 31 | 149 | 6.4 | 19.3 | 0.00 | 0.00 | 0.00 | 62 | 1012.6 |
| 20260906023104 | 31 | 117 | 9.7 | 24.1 | 0.00 | 0.00 | 0.00 | 60 | 1012.1 |
| 20260906021609 | 31 | 126 | 4.8 | 19.3 | 0.00 | 0.00 | 0.00 | 58 | 1011.8 |
| 20260906020107 | 31 | 155 | 6.4 | 22.5 | 0.00 | 0.00 | 0.00 | 57 | 1011.6 |
| 20260906014603 | 32 | 136 | 6.4 | 16.1 | 0.00 | 0.00 | 0.00 | 57 | 1011.4 |
| 20260906013101 | 32 | 115 | 4.8 | 19.3 | 0.00 | 0.00 | 0.00 | 55 | 1011.4 |
| 20260906011607 | 32 | 0 | 6.4 | 17.7 | 0.00 | 0.00 | 0.00 | 55 | 1011.0 |
| 20260906010110 | 33 | 103 | 4.8 | 17.7 | 0.00 | 0.00 | 0.00 | 55 | 1011.0 |
| 20260906004606 | 33 | 126 | 6.4 | 20.9 | 0.00 | 0.00 | 0.00 | 54 | 1011.0 |
| 20260906003107 | 33 | 112 | 9.7 | 24.1 | 0.00 | 0.00 | 0.00 | 53 | 1010.9 |
| 20260906001621 | 34 | 110 | 8.0 | 19.3 | 0.00 | 0.00 | 0.00 | 51 | 1010.8 |
| 20260906000108 | 35 | 125 | 8.0 | 24.1 | 0.00 | 0.00 | 0.00 | 49 | 1010.7 |
| 20260905234602 | 36 | 0 | 3.2 | 9.7 | 0.00 | 0.00 | 0.00 | 44 | 1010.6 |
| 20260905233112 | 36 | 136 | 1.6 | 14.5 | 0.00 | 0.00 | 0.00 | 43 | 1010.4 |